Date String (YYYY-MM-DD hh:mm:ss) UTC,Instrument flags,absolute air pressure of the measurement (hPa),sample flow rate (lpm),inlet stack bypass flow (lpm),air temperature of the measurement (°C),ambient temperature measured by the external sensor (°C),aerosol sample conditioner tube jacket temperature (°C),OPC LED temperature (°C),internal box temperature (°C),relative humidity of the measurement (%),span deviation,mass concentration of particles derived from Lorenz-Mie calculation of OPC scattering (μg/m³),mass concentration of particles derived from Lorenz-Mie calculation of OPC scattering (μg/m³),mass concentration of particles derived from Lorenz-Mie calculation of OPC scattering (μg/m³)
DateTimeUTC,F1_M11,P_M11,Q1_M11,Q2_M11,T1_M11,T2_M11,T3_M11,T4_M11,T5_M11,U1_M11,ZSPAN_M11,X0_M11,X2_M11,X1_M11
2024-04-24 01:00:00,SystemResetWarning,0830.7,5.00,000.00,025.9,025.4,000.0,034.1,027.9,018.6,0000.0,0022.21,0008.34,0006.81
2024-04-24 01:01:00,SystemResetWarning,0830.6,5.00,000.00,026.0,025.4,000.0,034.1,027.9,018.3,0000.0,0021.02,0008.35,0006.78
2024-04-24 01:02:00,SystemResetWarning,0830.7,5.00,000.00,026.0,025.5,000.0,034.2,027.9,018.2,0000.0,0021.30,0008.34,0006.75
2024-04-24 01:03:00,SystemResetWarning,0830.7,5.00,000.00,026.0,025.3,000.0,034.2,027.8,018.3,0000.0,0021.32,0008.30,0006.73
2024-04-24 01:04:00,SystemResetWarning,0830.7,5.00,000.00,025.8,023.3,000.0,034.3,026.7,018.4,0000.0,0020.10,0008.29,0006.70
2024-04-24 01:05:00,SystemResetWarning,0830.7,5.02,000.00,025.3,022.2,000.0,034.2,026.0,019.0,0000.0,0021.68,0008.33,0006.68
2024-04-24 01:06:00,SystemResetWarning,0830.7,5.00,000.00,025.1,022.3,000.0,034.1,026.0,019.2,0000.0,0021.15,0008.32,0006.65
2024-04-24 01:07:00,SystemResetWarning,0830.8,5.00,000.00,025.1,022.7,000.0,034.0,026.3,019.7,0000.0,0020.89,0008.31,0006.63
2024-04-24 01:08:00,SystemResetWarning,0830.8,5.01,000.00,025.1,023.1,000.0,033.9,026.6,019.5,0000.0,0021.90,0008.29,0006.60
2024-04-24 01:09:00,SystemResetWarning,0830.8,5.00,000.00,025.1,023.4,000.0,033.8,026.8,019.0,0000.0,0022.10,0008.26,0006.59
2024-04-24 01:10:00,SystemResetWarning,0830.9,5.00,000.00,025.2,023.7,000.0,033.8,026.9,019.0,0000.0,0021.98,0008.20,0006.59
2024-04-24 01:11:00,SystemResetWarning,0830.9,5.00,000.00,025.2,023.9,000.0,033.8,027.0,018.9,0000.0,0021.05,0008.15,0006.59
2024-04-24 01:12:00,SystemResetWarning,0830.9,5.00,000.00,025.3,024.2,000.0,033.8,027.1,019.1,0000.0,0020.75,0008.17,0006.61
2024-04-24 01:13:00,SystemResetWarning,0830.9,5.00,000.00,025.3,024.4,000.0,033.8,027.2,018.8,0000.0,0020.84,0008.18,0006.62
2024-04-24 01:14:00,SystemResetWarning,0830.9,5.00,000.00,025.4,024.5,000.0,033.8,027.3,018.7,0000.0,0021.30,0008.17,0006.60
2024-04-24 01:15:00,SystemResetWarning,0830.9,5.00,000.00,025.4,024.6,000.0,033.8,027.3,018.6,0000.0,0021.44,0008.19,0006.61
2024-04-24 01:16:00,SystemResetWarning,0830.9,5.00,000.00,025.4,024.7,000.0,033.8,027.4,018.6,0000.0,0019.64,0008.10,0006.59
2024-04-24 01:17:00,SystemResetWarning,0830.9,5.00,000.00,025.5,024.8,000.0,033.8,027.4,018.8,0000.0,0019.53,0008.08,0006.58
2024-04-24 01:18:00,SystemResetWarning,0830.9,5.00,000.00,025.5,024.9,000.0,033.8,027.5,019.2,0000.0,0019.83,0008.04,0006.57
2024-04-24 01:19:00,SystemResetWarning,0830.9,4.99,000.00,025.6,025.0,000.0,033.9,027.5,019.1,0000.0,0019.73,0008.04,0006.55
2024-04-24 01:20:00,SystemResetWarning,0830.9,5.00,000.00,025.6,025.0,000.0,033.9,027.6,019.0,0000.0,0020.08,0008.01,0006.53
2024-04-24 01:21:00,SystemResetWarning,0830.9,5.00,000.00,025.7,025.1,000.0,033.9,027.6,019.1,0000.6,0020.65,0007.99,0006.50
2024-04-24 01:22:00,SystemResetWarning,0831.0,4.99,000.00,025.7,025.1,000.0,033.9,027.6,018.7,0002.3,0021.39,0008.03,0006.48
2024-04-24 01:23:00,SystemResetWarning,0830.9,5.01,000.00,025.7,025.2,000.0,034.0,027.7,018.9,0002.7,0021.65,0008.00,0006.47
2024-04-24 01:24:00,SystemResetWarning,0830.9,5.00,000.00,025.8,025.2,000.0,034.0,027.7,019.0,0002.4,0021.65,0008.02,0006.48
2024-04-24 01:25:00,SystemResetWarning,0830.9,5.00,000.00,025.8,025.2,000.0,034.0,027.7,019.1,0001.5,0021.61,0008.04,0006.49
2024-04-24 01:26:00,SystemResetWarning,0830.9,5.00,000.00,025.8,025.2,000.0,034.0,027.7,019.1,0001.2,0021.74,0008.07,0006.47
2024-04-24 01:27:00,SystemResetWarning,0830.9,5.00,000.00,025.9,025.3,000.0,034.1,027.8,019.1,0001.5,0021.24,0008.08,0006.46
2024-04-24 01:28:00,SystemResetWarning,0830.9,5.00,000.00,025.9,025.3,000.0,034.1,027.8,019.1,0002.2,0021.67,0008.06,0006.45
2024-04-24 01:29:00,SystemResetWarning,0830.9,5.00,000.00,025.9,025.3,000.0,034.1,027.8,019.1,0002.6,0022.65,0008.02,0006.44
2024-04-24 01:30:00,SystemResetWarning,0830.9,4.99,000.00,026.0,025.4,000.0,034.2,027.9,019.2,0000.5,0021.92,0008.01,0006.46
2024-04-24 01:31:00,SystemResetWarning,0830.9,4.99,000.00,026.0,025.4,000.0,034.2,027.9,019.1,0000.0,0021.39,0007.99,0006.46
2024-04-24 01:32:00,SystemResetWarning,0830.9,5.00,000.00,026.0,025.4,000.0,034.2,027.9,018.9,0000.0,0021.03,0008.00,0006.46
2024-04-24 01:33:00,SystemResetWarning,0830.9,5.01,000.00,026.0,025.5,000.0,034.3,028.0,019.0,0000.0,0020.80,0007.97,0006.46
2024-04-24 01:34:00,SystemResetWarning,0830.9,5.00,000.00,026.1,025.3,000.0,034.3,027.8,018.9,0000.0,0021.60,0007.94,0006.46
2024-04-24 01:35:00,SystemResetWarning,0830.9,5.00,000.00,025.8,023.3,000.0,034.4,026.7,019.0,0000.0,0022.30,0007.87,0006.44
2024-04-24 01:36:00,SystemResetWarning,0830.9,5.02,000.00,025.3,022.2,000.0,034.3,026.0,019.4,0000.0,0023.16,0007.87,0006.44
2024-04-24 01:37:00,SystemResetWarning,0830.9,4.99,000.00,025.1,022.4,000.0,034.2,026.0,019.9,0000.0,0023.02,0007.87,0006.45
2024-04-24 01:38:00,SystemResetWarning,0831.0,5.00,000.00,025.1,022.8,000.0,034.1,026.3,020.0,0000.0,0023.61,0007.86,0006.46
2024-04-24 01:39:00,SystemResetWarning,0830.9,5.01,000.00,025.1,023.1,000.0,034.0,026.6,019.8,0000.0,0022.65,0007.84,0006.47
2024-04-24 01:40:00,SystemResetWarning,0831.0,5.00,000.00,025.1,023.5,000.0,033.9,026.8,019.8,0000.0,0021.90,0007.86,0006.48
2024-04-24 01:41:00,SystemResetWarning,0831.1,5.00,000.00,025.2,023.7,000.0,033.9,026.9,019.6,0000.0,0021.83,0007.91,0006.49
2024-04-24 01:42:00,SystemResetWarning,0831.1,5.00,000.00,025.2,024.0,000.0,033.8,027.0,019.6,0000.0,0021.92,0008.01,0006.54
2024-04-24 01:43:00,SystemResetWarning,0831.2,5.00,000.00,025.3,024.2,000.0,033.8,027.1,019.6,0000.0,0022.41,0008.09,0006.60
2024-04-24 01:44:00,SystemResetWarning,0831.3,5.00,000.00,025.3,024.4,000.0,033.8,027.2,020.1,0000.0,0023.23,0008.11,0006.63
2024-04-24 01:45:00,SystemResetWarning,0831.3,4.98,000.00,025.4,024.5,000.0,033.8,027.3,020.6,0000.0,0022.97,0008.18,0006.64
2024-04-24 01:46:00,SystemResetWarning,0831.3,5.00,000.00,025.4,024.6,000.0,033.8,027.3,020.7,0000.0,0022.72,0008.21,0006.63
2024-04-24 01:47:00,SystemResetWarning,0831.4,5.00,000.00,025.4,024.7,000.0,033.8,027.4,019.8,0000.0,0022.75,0008.23,0006.62
2024-04-24 01:48:00,SystemResetWarning,0831.4,5.01,000.00,025.5,024.8,000.0,033.8,027.4,020.3,0000.0,0022.49,0008.19,0006.62
2024-04-24 01:49:00,SystemResetWarning,0831.5,5.00,000.00,025.5,024.9,000.0,033.9,027.5,020.3,0000.0,0021.80,0008.20,0006.63
2024-04-24 01:50:00,SystemResetWarning,0831.5,4.98,000.00,025.6,025.0,000.0,033.9,027.5,019.9,0000.0,0021.84,0008.24,0006.63
2024-04-24 01:51:00,SystemResetWarning,0831.5,5.00,000.00,025.6,025.0,000.0,033.9,027.5,020.1,0000.0,0021.10,0008.27,0006.64
2024-04-24 01:52:00,SystemResetWarning,0831.5,5.01,000.00,025.7,025.1,000.0,033.9,027.6,020.7,0000.0,0021.57,0008.26,0006.61
2024-04-24 01:53:00,SystemResetWarning,0831.5,5.02,000.00,025.7,025.1,000.0,034.0,027.6,021.0,0000.0,0021.71,0008.18,0006.55
2024-04-24 01:54:00,SystemResetWarning,0831.5,5.00,000.00,025.7,025.1,000.0,034.0,027.6,021.2,0000.0,0021.40,0008.12,0006.49
2024-04-24 01:55:00,SystemResetWarning,0831.4,4.99,000.00,025.7,025.2,000.0,034.0,027.7,021.1,0000.0,0020.29,0008.15,0006.44
2024-04-24 01:56:00,SystemResetWarning,0831.3,4.99,000.00,025.8,025.2,000.0,034.0,027.7,020.7,0000.0,0019.10,0008.11,0006.41
2024-04-24 01:57:00,SystemResetWarning,0831.3,5.00,000.00,025.8,025.2,000.0,034.1,027.7,020.8,0000.0,0018.47,0008.10,0006.44
2024-04-24 01:58:00,SystemResetWarning,0831.2,5.01,000.00,025.8,025.2,000.0,034.1,027.7,021.9,0000.0,0016.83,0008.04,0006.45
2024-04-24 01:59:00,SystemResetWarning,0831.2,5.01,000.00,025.9,025.3,000.0,034.1,027.8,021.5,0000.0,0016.34,0008.03,0006.42
